Weather in Tahtamukaj

Russia / Republic of Adygea     44°55′15″N   38°59′39″E
temp.,
°C
wind,
m/s
gust,
m/s
humid.,
%
clouds,
%
prec.,
mm/h
press.,
hPa
HPBL,
m
8 march, mon
mon800:00+1wsw24480 0.0 1022282
03:00+1sw35490 0.0 1021266
06:000ssw35520 0.0 1020154
09:00+3sw46440 0.0 10191114
12:00+6wsw574528 0.0 10191640
15:00+6wsw685058 0.1 10171662
18:00+4wsw477294 0.2 1017788
21:00+3ssw497487 0.2 1018547
9 march, tue
tue900:00+2sw488689 0.0 1017465
03:00+2ssw498470 0.1 1016450
06:00+2ssw3978100 0.0 1016499
09:00+5wsw5106595 0.0 10171160
12:00+3w5992100 2.0 1017502
15:00+5sw4679100 3.1 1018650
18:00+5wnw4765100 0.6 1019811
21:00+2wnw366474 0.6 1021464
10 march, wed
wed1000:00+1w2462100 0.0 1022280
03:000w246592 0.0 1023214
06:000n2367100 0.0 1023146
09:00+1ene2257100 0.0 1024398
12:00+4ene2248100 0.0 10231023
15:00+5ne3346100 0.0 10221062
18:00+3ene4652100 0.0 1020778
21:00+2ene5859100 0.0 1020633
11 march, thu
thu1100:000ene5969100 0.1 1019622
03:00−1ene61170100 0.3 1019596
06:00−2ene71279100 0.3 1019650
09:00−1ene81272100 0.4 1019798
12:00+2ene81253100 0.1 10191242
15:00+3ene81143100 0.1 10191532
18:00+1ene7114150 0.0 10211234
21:00−1ene7114925 0.0 1024962
12 march, fri
fri1200:00−2ene611540 0.0 1025885
03:00−3ene610540 0.0 1026836
06:00−3ene59550 0.0 1027803
09:00−2e68520 0.0 1028849
12:00+1e57410 0.0 10261032
15:00+3e56390 0.0 10251065
18:00+1e355078 0.0 1026595
21:00−1ese596687 0.0 1024457